Regional Weather Roundup
Issued by NWS Charleston, SC

Current Version | Previous Version | Graphics & Text | Print | Product List | Glossary On
Versions: 1 2 3 4 5 6 7 8 9 10 11 12 13 14 15 16 17 18 19 20 21 22 23 24 25 26 27 28 29 30 31 32 33 34 35 36 37 38 39 40 41 42 43 44 45 46 47 48 49 50
000
ASUS42 KCHS 281710
RWRCHS

REGIONAL WEATHER ROUNDUP
NATIONAL WEATHER SERVICE CHARLESTON SC
100 PM EDT MON JUL 28 2014

NOTE: "FAIR" INDICATES FEW OR NO CLOUDS BELOW 12,000 FEET WITH NO
SIGNIFICANT WEATHER AND/OR OBSTRUCTIONS TO VISIBILITY.

NOT ALL STATIONS ARE QUALITY CONTROLLED BY THE NATIONAL
WEATHER SERVICE. USE DATA WITH CAUTION...ESPECIALLY
DEWPOINT OBSERVATIONS.

SCZ027-030-031-034>040-042>050-281800-
...SOUTH CAROLINA...

CITY           SKY/WX    TMP DP  RH WIND       PRES   REMARKS
N CHARLESTON   PTSUNNY   93  76  57 W12G22    29.87F HX 105
WATERFRONT PRK   N/A     91 N/A N/A SW10G16     N/A
FORT JOHNSON   NOT AVBL
MOUNT PLEASANT FAIR      91  79  66 SW10      29.86F HAZE    HX 107
JOHNS ISLAND   MOSUNNY   93  70  46 SW14G20   29.87F HX  99
PINOPOLIS        N/A     88  77  70 W15       29.80S HX 100
MONCKS CORNER    N/A     90  81  74 W5        29.87S HX 108
SUMMERVILLE    PTSUNNY   88  77  70 W10       29.88S HX 100
BEAUFORT MCAS  MOSUNNY   94  75  54 NW15      29.87F HX 105
BEAUFORT ARPT  FAIR      95  75  52 W17       29.87F HX 107
HILTON HEAD IS MOSUNNY   93  75  55 SW17G23   29.89F HX 104
GEORGETOWN     NOT AVBL
WALTERBORO     PTSUNNY   90  73  58 W13       29.88F HX  98
ORANGEBURG     MOSUNNY   91  75  59 W14       29.86F HX 101
BARNWELL       FAIR      91  75  59 W15G21    29.88F HX 102
AIKEN          FAIR      91  73  55 W14G21    29.90F HX 100
MANNING        FAIR      90  77  66 SW9       29.85F HX 102
KINGSTREE      NOT AVBL
COLUMBIA       MOSUNNY   95  70  44 SW16G24   29.83F HX 101
SUMTER         SUNNY     91  76  60 SW13G20   29.82F HX 103
FLORENCE       PTSUNNY   89  74  60 W12       29.82F HX  98
MYRTLE BEACH   MOSUNNY   91  75  59 SW9       29.83F HX 102
N MYRTLE BEACH MOSUNNY   90  75  61 W9        29.82F HX 100

$$

GAZ063-065-086>088-099>101-113>116-118-119-134-136>141-150-281800-
...GEORGIA...

CITY           SKY/WX    TMP DP  RH WIND       PRES   REMARKS
SAVANNAH ARPT  MOSUNNY   96  73  47 W18G25    29.89F HX 105
HUNTER AAF     SUNNY     95  75  52 W17G26    29.88F HX 107
FORT STEWART   MOSUNNY   96  73  47 W13G21    29.90F HX 104
STATESBORO     NOT AVBL
SYLVANIA       PTSUNNY   91  80  71 W8        29.90F HX 109
CLAXTON        FAIR      95  77  55 W14G21    29.90F HX 109
THOMSON        MOSUNNY   92  80  67 W10       29.93F HX 111
AUGUSTA-BUSH   MOSUNNY   93  74  53 W9G21     29.86F HX 103
AUGUSTA-DANIEL MOSUNNY   92  72  51 W10G17    29.88F HX  99
SWAINSBORO     CLOUDY    93  79  62 W12       29.92F HX 110
VIDALIA          N/A     93  75  55 W10G20    29.93S HX 104
ALMA           NOT AVBL
WAYCROSS       PTSUNNY   98  77  49 W16G23    29.94F HX 113
JESUP          NOT AVBL
BRUNSWICK      PTSUNNY   95  73  49 SW15G22   29.94F HX 105
SAINT SIMONS   MOSUNNY   93  75  55 SW15      29.93F HX 104

$$

SCZ027-028-034-036>038-045-046-048>050-GAZ119-141-281800-
...LAKE AND SUPPLEMENTAL COASTAL OBSERVATIONS...

STATION/POSITION TIME  TEMP    WIND        PRES    WAVE   SWELL
                       AIR SEA DIR/SP/G            HT/PER HT/PER/DIR
                 (UTC) (F)     (DEG/KT/KT) (MB)    (FT/S) (FT/S/D)
UPR LAKE MARION  NOT AVBL
WINYAH BAY       1600   86     250/  9     1011.0S
LAKE MURRAY      1600   88     260/ 13/ 18 1009.8F
ACE BASIN NERRS  1600   90     260/  4     1012.0S
FORT PULASKI     1700   91     250/ 11/ 15 1012.6F
SAPELO ISLAND    1600   90     260/ 12     1015.0S

$$

ANZ835-935-AMZ111-154-330-350-352-354-374-450-454-472-281800-
...C-MAN AND BUOY OBSERVATIONS...

STATION/POSITION TIME  TEMP    WIND        PRES    WAVE   SWELL
                       AIR SEA DIR/SP/G            HT/PER HT/PER/DIR
                 (UTC) (F)     (DEG/KT/KT) (MB)    (FT/S) (FT/S/D)
FOLLY BEACH CMAN 1600   87     220/ 17/ 19 1012.0F
BUOY 41004       1700   84 83  220/ 17/ 19 1010.7F   5/ 5   2/ 9
BUOY 41008       1700   85 85  230/ 12/ 14 1013.3F   2/10   2/110/10
5E ST. MARYS GA  1700      85                N/A     2/ 9
FRYING PAN BUOY  NOT AVBL
BUOY 41025       1700          VRB 17/ 19  1008.6R   5/ 7   2/120/ 9
CAPE LOOKOUT NC  1600   83     240/ 10/ 13 1009.6R
BUOY 41002       1621   82 81  240/ 16/ 17 1014.5F   6/ 7   2/140/ 8
BUOY 41010       1700   84 85  250/ 14/ 16 1016.9F   4/ 5   2/130/ 9
BUOY 41012       NOT AVBL
ST AUGUSTINE FL  1700   90     270/ 10/ 15 1016.3F
CAPERS NEARSHORE 1600   86     260/ 16/ 19   N/A
FRIPP NEARSHORE  NOT AVBL


$$


USA.gov is the U.S. government's official web portal to all federal, state and local government web resources and services.